Regional Weather Roundup
Issued by NWS

Home | Current Version | Previous Version | Text Only | Print | Product List | Glossary Off
Versions: 1 2 3 4 5 6 7 8 9 10 11 12 13 14 15 16 17 18 19 20 21 22 23 24 25 26 27 28 29 30 31 32 33 34 35 36 37 38 39 40 41 42 43 44 45 46 47 48 49 50

000
ASUS43 KLMK 131010
RWRKY
KENTUCKY REGIONAL WEATHER ROUNDUP
NATIONAL WEATHER SERVICE LOUISVILLE KY
600 AM EDT SUN JUL 13 2014

NOTE "FAIR" INDICATES FEW OR NO CLOUDS BELOW 12,000 FEET
WITH NO SIGNIFICANT WEATHER AND/OR OBSTRUCTIONS TO VISIBILITY.

KYZ001>023-026-027-061>063-070>075-131100-
WESTERN AND SOUTH CENTRAL KENTUCKY

CITY           SKY/WX    TMP DP  RH WIND       PRES   REMARKS
PADUCAH        CLEAR     77  71  82 SW5       30.02R
HENDERSON      PTCLDY    73  70  88 SW6       30.01R
OWENSBORO      CLEAR     73  71  93 CALM      30.02S
HOPKINSVILLE   PTCLDY    73  72  98 S2        30.05R
BOWLING GREEN  MOCLDY    75  67  76 SW5       30.06R
GLASGOW        CLEAR     72  65  77 CALM      30.07R
$$

KYZ024-025-028>034-038-045-046-053-131100-
NORTH CENTRAL KENTUCKY

CITY           SKY/WX    TMP DP  RH WIND       PRES   REMARKS
LOUISVILLE/SDF CLOUDY    79  69  71 SW6       30.02R
LOUISVILLE/LOU MOCLDY    77  68  73 S3        30.02S
FORT KNOX      MOCLDY    72  70  93 S3        30.03R
$$

KYZ035>037-039>044-047>052-055>060-089>105-131100-
NORTHEAST KENTUCKY

CITY           SKY/WX    TMP DP  RH WIND       PRES   REMARKS
LEXINGTON      CLOUDY    76  64  66 S7        30.07R
COVINGTON      CLOUDY    76  67  73 SW7       30.01S
FRANKFORT        N/A     73  67  81 SW3       30.04R
$$

KYZ054-064>069-076>088-106>120-131100-
SOUTHEAST KENTUCKY

CITY           SKY/WX    TMP DP  RH WIND       PRES   REMARKS
JACKSON        CLOUDY    72  63  73 VRB3      30.10R
LONDON         PTCLDY    69  63  81 CALM      30.11R
SOMERSET       CLOUDY    70  68  94 CALM      30.10R
MIDDLESBORO    CLEAR     65  64  97 CALM      30.13S
MONTICELLO     SUNNY     66  65  97 CALM      30.10S FOG
$$



USA.gov is the U.S. government's official web portal to all federal, state and local government web resources and services.